Regional Weather Roundup
Issued by NWS

Home | Current Version | Previous Version | Text Only | Print | Product List | Glossary On
Versions: 1 2 3 4 5 6 7 8 9 10 11 12 13 14 15 16 17 18 19 20 21 22 23 24 25 26 27 28 29 30 31 32 33 34 35 36 37 38 39 40 41 42 43 44 45 46 47 48 49 50
000
ASUS44 KOUN 031200
RWROK

WEATHER ROUNDUP FOR OKLAHOMA
NATIONAL WEATHER SERVICE NORMAN OK
700 AM CDT TUE AUG 03 2021

NOTE: "FAIR" INDICATES FEW OR NO CLOUDS BELOW 12,000 FEET WITH NO
      SIGNIFICANT WEATHER AND/OR OBSTRUCTIONS TO VISIBILITY.

OKZ001>007-009>012-014-015-017-031300-
NORTHWEST OKLAHOMA AND THE PANHANDLE

CITY           SKY/WX    TMP DP  RH WIND       PRES   REMARKS
GAGE           CLEAR     54  53  97 S3        30.14R
6HR MIN TEMP:  54; 6HR MAX TEMP:  63;

GUYMON         PTCLDY    61  54  77 SW7       30.16S
ENID/WOODRING  CLEAR     61  61 100 CALM      30.09R
$$

OKZ016-021>023-033>039-044-045-031300-
SOUTHWEST OKLAHOMA

CITY           SKY/WX    TMP DP  RH WIND       PRES   REMARKS
LAWTON/REGL    CLEAR     61  58  90 CALM      30.08R FOG
6HR MIN TEMP:  61; 6HR MAX TEMP:  66;

LAWTON/FT SILL CLEAR     62  60  92 N6        30.07R
FREDERICK      CLEAR     66  60  81 N9        30.06R
CLINTON        CLEAR     63  57  81 MISG      30.13R
HOBART         CLEAR     59  56  89 N5        30.11R FOG
ALTUS AFB      CLEAR     58  56  91 N3        30.08S
$$

OKZ018>020-024>031-031300-
CENTRAL OKLAHOMA

CITY           SKY/WX    TMP DP  RH WIND       PRES   REMARKS
OKLAHOMA CITY  PTCLDY    68  61  78 N7        30.08S HAZE
6HR MIN TEMP:  67; 6HR MAX TEMP:  72;

OKC/WILEY POST CLEAR     64  59  83 CALM      30.08S HAZE
OKC/TINKER AFB CLEAR     65  62  88 NW3       30.07R
STILLWATER     CLEAR     65  61  87 CALM      30.08R FOG
GUTHRIE        CLEAR     62  62 100 CALM      30.09R FOG
$$

OKZ008-013-054>072-031300-
NORTHEAST OKLAHOMA

CITY           SKY/WX    TMP DP  RH WIND       PRES   REMARKS
TULSA          CLEAR     65  63  93 NW5       30.06R FOG
6HR MIN TEMP:  65; 6HR MAX TEMP:  70;

TULSA/JONES    CLEAR     69  65  86 N5        30.06R FOG
PONCA CITY     CLEAR     61  59  93 N5        30.10R
BARTLESVILLE   CLEAR     62  62 100 CALM      30.09R FOG
MUSKOGEE       PTCLDY    68  65  90 N6        30.05R FOG
$$

OKZ032-040>043-046>053-073>077-031300-
SOUTH CENTRAL/SOUTHEAST OKLAHOMA

CITY           SKY/WX    TMP DP  RH WIND       PRES   REMARKS
MCALESTER      MOCLDY    68  65  90 CALM      30.04R FOG
$$




USA.gov is the U.S. government's official web portal to all federal, state and local government web resources and services.